EW4600 Weather Reports


time (UTC)temp
C
wind
direction
speed
KPH
gust
KPH
rain 1hr
cm
rain 24hr
cm
rain mn
cm
humidity
%
barometer
mb
20260506073059 12 360 6.4 9.7 0.00 0.00 0.00 84 1003.6
20260506071556 12 30 6.4 16.1 0.00 0.00 0.00 84 1003.3
20260506061548 13 360 8.0 16.1 0.00 0.00 0.00 83 1002.6
20260506044531 14 360 8.0 19.3 0.00 0.00 0.00 81 1003.0
20260506043028 14 360 8.0 17.7 0.00 0.00 0.00 80 1002.8
20260506041524 15 360 4.8 17.7 0.00 0.00 0.00 79 1002.8
20260506040034 15 360 9.7 22.5 0.00 0.00 0.00 78 1002.7
20260506034521 15 360 14.5 22.5 0.00 0.00 0.00 78 1002.7
20260506033015 16 360 9.7 22.5 0.00 0.00 0.00 78 1002.4
20260506031512 16 360 8.0 19.3 0.00 0.00 0.00 78 1001.9
20260506030012 16 360 9.7 20.9 0.00 0.00 0.00 78 1001.7
20260506024507 16 360 12.9 20.9 0.00 0.00 0.00 77 1001.3
20260506023003 17 360 9.7 17.7 0.00 0.00 0.00 76 1000.9
20260506021615 17 360 6.4 14.5 0.00 0.00 0.00 76 1000.8
20260506020057 17 360 4.8 16.1 0.00 0.00 0.00 75 1000.5
20260506014556 17 360 6.4 17.7 0.00 0.00 0.00 75 1000.4
20260506013054 18 13 8.0 17.7 0.00 0.00 0.00 74 999.6
20260506011548 18 360 6.4 12.9 0.00 0.00 0.00 73 999.6
20260506010055 18 32 8.0 20.9 0.00 0.00 0.00 71 998.7
20260506004548 20 360 9.7 20.9 0.00 0.00 0.00 71 998.5
20260506003042 20 360 9.7 22.5 0.00 0.00 0.00 70 998.5
20260506001545 20 360 12.9 27.4 0.00 0.00 0.00 68 998.1
20260506000039 21 360 9.7 17.7 0.00 0.00 0.00 68 998.4
20260505234559 21 360 6.4 16.1 0.00 0.00 0.00 67 998.3
20260505233040 22 360 8.0 17.7 0.00 0.00 0.00 67 998.2
20260505231537 22 360 12.9 24.1 0.00 0.00 0.00 65 998.1
20260505230035 23 13 12.9 24.1 0.00 0.00 0.00 63 998.1
20260505224536 24 360 11.3 22.5 0.00 0.00 0.00 62 997.8
20260505223035 25 360 8.0 20.9 0.00 0.00 0.00 62 997.6
20260505221535 26 360 9.7 24.1 0.00 0.00 0.00 60 997.6
20260505220033 26 360 11.3 20.9 0.00 0.00 0.00 62 997.3
20260505214558 26 360 12.9 24.1 0.00 0.00 0.00 58 997.4
20260505213036 27 360 8.0 19.3 0.00 0.00 0.00 54 997.4
20260505211532 27 360 6.4 16.1 0.00 0.00 0.00 50 997.3
20260505210031 27 360 8.0 17.7 0.00 0.00 0.00 48 997.3
20260505204530 28 360 8.0 20.9 0.00 0.00 0.00 46 997.3
20260505203036 31 360 8.0 20.9 0.00 0.00 0.00 49 997.5
20260505201530 30 360 6.4 19.3 0.00 0.00 0.00 48 997.3
20260505200025 30 360 6.4 17.7 0.00 0.00 0.00 54 997.5
20260505194522 30 225 4.8 16.1 0.00 0.00 0.00 56 997.6
20260505193020 30 360 9.7 22.5 0.00 0.00 0.00 56 997.6
20260505191520 30 360 8.0 24.1 0.00 0.00 0.00 56 997.6
20260505190019 29 213 11.3 27.4 0.00 0.00 0.00 58 997.5
20260505184513 28 360 9.7 25.7 0.00 0.00 0.00 62 997.4
20260505183015 28 169 12.9 24.1 0.00 0.00 0.00 62 997.4
20260505181508 27 204 14.5 22.5 0.00 0.00 0.00 62 997.5
20260505180006 27 360 17.7 32.2 0.00 0.00 0.00 63 997.5
20260505174609 27 360 14.5 27.4 0.00 0.00 0.00 63 997.7
20260505173008 27 360 12.9 35.4 0.00 0.00 0.00 64 997.5
20260505171504 27 212 17.7 33.8 0.00 0.00 0.00 63 997.4
20260505170001 27 360 16.1 29.0 0.00 0.00 0.00 64 997.6
20260505164559 27 360 9.7 25.7 0.00 0.00 0.00 65 997.7
20260505163055 26 196 9.7 27.4 0.00 0.00 0.00 70 997.5
20260505161558 25 183 14.5 24.1 0.00 0.00 0.00 74 997.4
20260505153041 23 360 11.3 30.6 0.00 0.00 0.00 80 997.2
20260505151537 22 360 14.5 24.1 0.00 0.00 0.00 81 997.5
20260505124532 19 360 12.9 32.2 0.00 0.00 0.00 87 996.9
20260505123026 19 360 17.7 33.8 0.00 0.00 0.00 87 996.5
20260505121523 19 360 16.1 27.4 0.00 0.00 0.00 87 996.3
20260505120022 19 360 14.5 29.0 0.00 0.00 0.00 87 996.2
20260505114520 19 360 11.3 32.2 0.00 0.00 0.00 87 996.1
20260505113020 19 360 17.7 30.6 0.00 0.00 0.00 86 996.1
20260505111517 19 360 17.7 33.8 0.00 0.00 0.00 86 996.1
20260505101522 20 226 14.5 30.6 0.00 0.00 0.00 84 995.9
20260505100018 20 360 14.5 33.8 0.00 0.00 0.00 84 995.9
20260505094504 20 360 14.5 30.6 0.00 0.00 0.00 83 996.0
20260505093006 20 360 12.9 32.2 0.00 0.00 0.00 82 996.2
20260505091701 20 360 14.5 33.8 0.00 0.00 0.00 81 996.0
20260505090056 20 182 14.5 32.2 0.00 0.00 0.00 80 996.3
20260505084554 21 360 17.7 32.2 0.00 0.00 0.00 79 996.4
20260505083052 21 188 17.7 30.6 0.00 0.00 0.00 79 996.5
20260505081558 21 360 19.3 37.0 0.00 0.00 0.00 78 996.6